カタログに戻る

COSMOS 2499 DEB

運用中PO
NORAD 56567·DEBRIS·🇷🇺 Russia

打ち上げ May 23, 2014 から Plesetsk Cosmodrome

Loading…

次のパス (今後24時間)

TLE

最新Source: Space-Track

元期: Sep 14, 2026, 15:49 UTC

1 56567U 14028BA  26257.65942305  .00006366  00000-0  23874-1 0  9996
2 56567  82.6251 224.3862 0176279 144.4179 216.8833 12.86463348170480

AllMySatでCOSMOS 2499 DEBをリアルタイム追跡

Download on the App Store